Weather History for South Lake Tahoe, CA

Change the Weather History Date:

Thursday, July 24, 2014

  Actual Average Record
Temperature  
Mean Temperature 62 °F 62 °F  
Max Temperature 82 °F 82 °F 91 °F (1988)
Min Temperature 41 °F 42 °F 32 °F (2000)
Degree Days  
Heating Degree Days 3 4  
Month to date heating degree days 11 114  
Since 1 June heating degree days 221 424  
Since 1 July heating degree days 11 114  
Cooling Degree Days 0 1  
Month to date cooling degree days 71 12  
Year to date cooling degree days 72 13  
Since 1 June cooling degree days 72 13  
Growing Degree Days 10 (Base 50)    
Moisture  
Dew Point 38 °F    
Average Humidity 46    
Maximum Humidity 73    
Minimum Humidity 18    
Precipitation  
Precipitation 0.00 in - 0.46 in (1946)
Month to date precipitation 0.43  
Year to date precipitation 12.85  
Sea Level Pressure  
Sea Level Pressure 30.05 in    
Wind  
Wind Speed 4 mph (ESE)    
Max Wind Speed 14 mph    
Max Gust Speed 18 mph    
Visibility 10 miles    
Events      
T = Trace of Precipitation, MM = Missing Value Source: NWS Daily Summary

Daily Weather History Graph

Daily Weather History Graph

Search for Another Location

Airport:

Trip Planner

Search our weather history database for the weather conditions in past years. The results will help you decide how hot, cold, wet, or windy it might be!

Date:

Astronomy

Jul. 24, 2014 Rise Set
Actual Time 5:54 AM PDT 8:18 PM PDT
Civil Twilight 5:23 AM PDT 8:48 PM PDT
Nautical Twilight 4:46 AM PDT 9:26 PM PDT
Astronomical Twilight 4:04 AM PDT 10:07 PM PDT
Moon 4:06 AM PDT (7/24) 6:37 PM PDT (7/24)
Length of Visible Light 15h 24m
Length of Day
14h 24m
Waning Crescent, 4% of the Moon is Illuminated
Jul 24
Waning Crescent
Jul 26
New
Aug 3
First Quarter
Aug 10
Full
Aug 17
Last Quarter

Hourly Weather History & Observations

Time (PDT) Temp. Windchill Dew Point Humidity Pressure Visibility Wind Dir Wind Speed Gust Speed Precip Events Conditions
12:53 AM 51.1 °F - 39.9 °F 66% 30.11 in 10.0 mi Calm Calm - N/A   Clear
1:53 AM 50.0 °F - 36.0 °F 59% 30.11 in 10.0 mi South 4.6 mph - N/A   Clear
2:53 AM 46.9 °F - 35.1 °F 63% 30.11 in 10.0 mi Calm Calm - N/A   Clear
3:53 AM 45.0 °F - 35.1 °F 68% 30.10 in 10.0 mi Calm Calm - N/A   Clear
4:53 AM 43.0 °F 41.3 °F 34.0 °F 71% 30.11 in 10.0 mi South 3.5 mph - N/A   Clear
5:53 AM 41.0 °F 39.0 °F 34.0 °F 76% 30.12 in 10.0 mi South 3.5 mph - N/A   Clear
6:53 AM 44.1 °F 42.5 °F 35.1 °F 71% 30.12 in 10.0 mi South 3.5 mph - N/A   Clear
7:53 AM 54.0 °F - 36.0 °F 51% 30.11 in 10.0 mi South 3.5 mph - N/A   Clear
8:53 AM 64.9 °F - 33.1 °F 31% 30.08 in 10.0 mi ENE 5.8 mph - N/A   Clear
9:53 AM 70.0 °F - 39.9 °F 33% 30.08 in 10.0 mi NNE 8.1 mph - N/A   Clear
10:53 AM 71.1 °F - 39.9 °F 32% 30.07 in 10.0 mi NE 8.1 mph - N/A   Clear
11:53 AM 75.0 °F - 37.9 °F 26% 30.06 in 10.0 mi North 4.6 mph - N/A   Clear
12:53 PM 75.9 °F - 39.0 °F 26% 30.04 in 10.0 mi Variable 3.5 mph - N/A   Clear
1:53 PM 78.1 °F - 35.1 °F 21% 30.03 in 10.0 mi NNE 11.5 mph - N/A   Clear
2:53 PM 79.0 °F - 35.1 °F 20% 30.01 in 10.0 mi NNE 11.5 mph - N/A   Clear
3:53 PM 80.1 °F - 34.0 °F 19% 29.99 in 10.0 mi NNE 9.2 mph - N/A   Clear
4:53 PM 80.1 °F - 37.0 °F 21% 29.99 in 10.0 mi NNE 9.2 mph - N/A   Clear
5:53 PM 80.1 °F - 39.0 °F 23% 29.97 in 10.0 mi NNE 5.8 mph - N/A   Clear
6:53 PM 78.1 °F - 37.9 °F 24% 29.98 in 10.0 mi Variable 3.5 mph - N/A   Clear
7:53 PM 71.1 °F - 42.1 °F 35% 29.98 in 10.0 mi SW 3.5 mph - N/A   Clear
8:53 PM 64.9 °F - 42.1 °F 43% 29.99 in 10.0 mi SW 3.5 mph - N/A   Clear
9:53 PM 61.0 °F - 43.0 °F 52% 29.99 in 10.0 mi Calm Calm - N/A   Clear
10:53 PM 57.0 °F - 43.0 °F 59% 30.01 in 10.0 mi South 3.5 mph - N/A   Clear
11:53 PM 55.0 °F - 42.1 °F 62% 30.01 in 10.0 mi South 3.5 mph - N/A   Clear